Location: Cave
(41.8160°N, 12.9350°E)
Time: 10:37:12
(UTC+02:00)

ISS - Pass Details

Date: 10 July 2019
Orbit: 409 x 418 km, 51.6° (Epoch: 17 July)

Event Time Altitude Azimuth Distance (km) Brightness Sun altitude
Exits shadow 01:42:06 22° 49° (NE) 970 -1.5 -25.5°
Drops below altitude 10° 01:43:24 10° 52° (NE) 1,480 -0.4 -25.5°
Sets 01:45:29 0° 54° (NE) 2,343 0.7 -25.5°
